This is the latest recevied weather packets stored in our database for station/object KC3DGM. If no packets are shown the sender has not sent any weather packets the latest 10 day(s).
| Time | Temp. | Humidity | Pressure | Rain* | Wind** | Luminosity | Snow |
|---|---|---|---|---|---|---|---|
| 1777296373 | 12.22° C | 73% | 993.7 hPa | 0 mm | - | 128 W/m² | - |
| 1777296068 | 11.67° C | 74% | 993.8 hPa | 0 mm | - | 55 W/m² | - |
| 1777295766 | 11.67° C | 74% | 993.8 hPa | 0 mm | - | 41 W/m² | - |
| 1777295463 | 11.67° C | 75% | 993.7 hPa | 0 mm | - | 77 W/m² | - |
| 1777295161 | 11.11° C | 75% | 993.7 hPa | 0 mm | - | 49 W/m² | - |
| 1777294858 | 11.11° C | 77% | 993.6 hPa | 0 mm | - | 33 W/m² | - |
| 1777294558 | 10.56° C | 77% | 993.6 hPa | 0 mm | - | 32 W/m² | - |
| 1777294255 | 10.56° C | 80% | 994 hPa | 0 mm | - | 32 W/m² | - |
| 1777293952 | 10° C | 82% | 993.8 hPa | 0 mm | - | 31 W/m² | - |
| 1777293648 | 10° C | 81% | 993.8 hPa | 0 mm | - | 30 W/m² | - |
| 1777293343 | 9.44° C | 83% | 994.1 hPa | 0 mm | - | 29 W/m² | - |
| 1777293039 | 8.89° C | 85% | 994.1 hPa | 0 mm | - | 29 W/m² | - |
| 1777292738 | 8.33° C | 89% | 994.2 hPa | 0 mm | - | 28 W/m² | - |
| 1777292434 | 7.78° C | 93% | 994.3 hPa | 0 mm | - | 26 W/m² | - |
| 1777292131 | 7.22° C | 97% | 994.3 hPa | 0 mm | - | 26 W/m² | - |
| 1777291827 | 7.22° C | 99% | 994.3 hPa | 0 mm | - | 27 W/m² | - |
| 1777291524 | 6.67° C | 99% | 994.3 hPa | 0 mm | - | 25 W/m² | - |
| 1777291221 | 6.67° C | 99% | 994.1 hPa | 0 mm | - | 23 W/m² | - |
| 1777290918 | 6.11° C | 99% | 994.1 hPa | 0 mm | - | 24 W/m² | - |
| 1777290615 | 5.56° C | 99% | 993.9 hPa | 0 mm | - | 26 W/m² | - |
| 1777290311 | 5° C | 99% | 993.9 hPa | 0 mm | - | 20 W/m² | - |
| 1777290007 | 4.44° C | 99% | 994.1 hPa | 0 mm | - | 20 W/m² | - |
| 1777289703 | 3.89° C | 99% | 993.9 hPa | 0 mm | - | 19 W/m² | - |
| 1777289399 | 3.89° C | 99% | 993.8 hPa | 0 mm | - | 19 W/m² | - |
| 1777289096 | 3.33° C | 99% | 994 hPa | 0 mm | - | 17 W/m² | - |
* Rain latest hour (hover to see other rain measurements)
** Current wind speed in m/s (hover to see current wind gust speed)